| time (UTC) | temp F | wind direction | speed MPH | gust MPH | rain 1hr in | rain 24hr in | rain mn in | humidity % | barometer mb |
| 20260504190549 | 76 | 0 | 8.0 | 17.0 | 0.00 | 0.00 | 0.00 | 35 | 1001.2 |
| 20260504190051 | 76 | 200 | 8.0 | 17.0 | 0.00 | 0.00 | 0.00 | 34 | 1001.2 |
| 20260504185549 | 76 | 242 | 8.0 | 20.0 | 0.00 | 0.00 | 0.00 | 36 | 1001.3 |
| 20260504184550 | 76 | 0 | 8.0 | 18.0 | 0.00 | 0.00 | 0.00 | 33 | 1001.3 |
| 20260504184051 | 76 | 0 | 8.0 | 18.0 | 0.00 | 0.00 | 0.00 | 35 | 1001.3 |
| 20260504183550 | 76 | 0 | 8.0 | 23.0 | 0.00 | 0.00 | 0.00 | 33 | 1001.3 |
| 20260504181540 | 76 | 260 | 7.0 | 22.0 | 0.00 | 0.00 | 0.00 | 35 | 1001.6 |
| 20260504181037 | 76 | 0 | 7.0 | 22.0 | 0.00 | 0.00 | 0.00 | 33 | 1001.6 |
| 20260504180538 | 77 | 0 | 8.0 | 19.0 | 0.00 | 0.00 | 0.00 | 33 | 1001.6 |
| 20260504175538 | 76 | 0 | 9.0 | 22.0 | 0.00 | 0.00 | 0.00 | 31 | 1001.6 |
| 20260504174538 | 76 | 0 | 10.0 | 21.0 | 0.00 | 0.00 | 0.00 | 32 | 1001.6 |
| 20260504174037 | 76 | 0 | 11.0 | 23.0 | 0.00 | 0.00 | 0.00 | 30 | 1001.6 |
| 20260504173538 | 76 | 242 | 11.0 | 23.0 | 0.00 | 0.00 | 0.00 | 32 | 1001.8 |
| 20260504173038 | 76 | 0 | 10.0 | 20.0 | 0.00 | 0.00 | 0.00 | 32 | 1001.6 |
| 20260504171538 | 77 | 0 | 10.0 | 21.0 | 0.00 | 0.00 | 0.00 | 32 | 1001.6 |
| 20260504170541 | 76 | 0 | 10.0 | 19.0 | 0.00 | 0.00 | 0.00 | 33 | 1001.6 |
| 20260504160429 | 75 | 0 | 5.0 | 11.0 | 0.00 | 0.00 | 0.00 | 38 | 1001.9 |
| 20260504150418 | 70 | 0 | 5.0 | 16.0 | 0.00 | 0.00 | 0.00 | 45 | 1002.4 |
| 20260504141334 | 67 | 0 | 4.0 | 11.0 | 0.00 | 0.00 | 0.00 | 47 | 1003.4 |
| 20260504140322 | 65 | 0 | 3.0 | 8.0 | 0.00 | 0.00 | 0.00 | 51 | 1003.5 |
| 20260504130716 | 58 | 0 | 3.0 | 7.0 | 0.00 | 0.00 | 0.00 | 63 | 1004.3 |
| 20260504120202 | 50 | 212 | 2.0 | 6.0 | 0.00 | 0.00 | 0.00 | 68 | 1004.4 |
| 20260504110621 | 48 | 194 | 1.0 | 4.0 | 0.00 | 0.00 | 0.00 | 66 | 1004.2 |
| 20260504110114 | 48 | 166 | 1.0 | 3.0 | 0.00 | 0.00 | 0.00 | 66 | 1004.1 |
| 20260504100508 | 49 | 164 | 1.0 | 4.0 | 0.00 | 0.00 | 0.00 | 65 | 1004.3 |
| 20260504081802 | 50 | 186 | 2.0 | 6.0 | 0.00 | 0.00 | 0.00 | 63 | 1004.8 |
| 20260504081257 | 50 | 200 | 3.0 | 8.0 | 0.00 | 0.00 | 0.00 | 63 | 1004.8 |
| 20260504080751 | 50 | 181 | 2.0 | 9.0 | 0.00 | 0.00 | 0.00 | 63 | 1004.7 |
| 20260504080245 | 50 | 188 | 2.0 | 9.0 | 0.00 | 0.00 | 0.00 | 63 | 1004.7 |
| 20260504070132 | 51 | 173 | 2.0 | 5.0 | 0.00 | 0.00 | 0.00 | 60 | 1005.5 |
| 20260504050415 | 53 | 217 | 2.0 | 6.0 | 0.00 | 0.00 | 0.00 | 57 | 1006.5 |
| 20260504045909 | 53 | 195 | 2.0 | 8.0 | 0.00 | 0.00 | 0.00 | 57 | 1006.6 |
| 20260504045401 | 53 | 174 | 2.0 | 8.0 | 0.00 | 0.00 | 0.00 | 57 | 1006.5 |
| 20260504044855 | 53 | 186 | 2.0 | 6.0 | 0.00 | 0.00 | 0.00 | 57 | 1006.5 |
| 20260504044349 | 53 | 186 | 2.0 | 7.0 | 0.00 | 0.00 | 0.00 | 56 | 1006.5 |
| 20260504043844 | 54 | 225 | 2.0 | 7.0 | 0.00 | 0.00 | 0.00 | 56 | 1006.6 |
| 20260504043338 | 54 | 163 | 2.0 | 8.0 | 0.00 | 0.00 | 0.00 | 56 | 1006.7 |
| 20260504042325 | 54 | 171 | 1.0 | 5.0 | 0.00 | 0.00 | 0.00 | 55 | 1006.7 |
| 20260504041820 | 54 | 153 | 1.0 | 9.0 | 0.00 | 0.00 | 0.00 | 55 | 1006.7 |
| 20260504041313 | 54 | 175 | 2.0 | 9.0 | 0.00 | 0.00 | 0.00 | 55 | 1006.7 |
| 20260504035755 | 55 | 185 | 0.0 | 3.0 | 0.00 | 0.00 | 0.00 | 54 | 1006.7 |
| 20260504035249 | 55 | 198 | 1.0 | 4.0 | 0.00 | 0.00 | 0.00 | 53 | 1006.8 |
| 20260504034743 | 55 | 188 | 2.0 | 7.0 | 0.00 | 0.00 | 0.00 | 53 | 1006.9 |
| 20260504034238 | 55 | 202 | 2.0 | 7.0 | 0.00 | 0.00 | 0.00 | 53 | 1006.9 |
| 20260504033731 | 55 | 168 | 1.0 | 5.0 | 0.00 | 0.00 | 0.00 | 53 | 1006.9 |
| 20260504033226 | 55 | 206 | 1.0 | 5.0 | 0.00 | 0.00 | 0.00 | 53 | 1007.0 |
| 20260504032719 | 55 | 209 | 1.0 | 6.0 | 0.00 | 0.00 | 0.00 | 53 | 1007.0 |
| 20260504031708 | 56 | 196 | 2.0 | 6.0 | 0.00 | 0.00 | 0.00 | 52 | 1007.1 |
| 20260504031201 | 56 | 155 | 1.0 | 6.0 | 0.00 | 0.00 | 0.00 | 52 | 1007.0 |
| 20260504030655 | 56 | 198 | 1.0 | 5.0 | 0.00 | 0.00 | 0.00 | 52 | 1007.1 |
| 20260504025643 | 56 | 186 | 2.0 | 7.0 | 0.00 | 0.00 | 0.00 | 51 | 1007.2 |
| 20260504024631 | 56 | 179 | 3.0 | 8.0 | 0.00 | 0.00 | 0.00 | 50 | 1007.2 |
| 20260504023619 | 57 | 169 | 3.0 | 9.0 | 0.00 | 0.00 | 0.00 | 50 | 1007.1 |
| 20260504023113 | 57 | 187 | 3.0 | 6.0 | 0.00 | 0.00 | 0.00 | 50 | 1007.2 |
| 20260504022607 | 57 | 196 | 2.0 | 6.0 | 0.00 | 0.00 | 0.00 | 50 | 1007.1 |
| 20260504022101 | 57 | 188 | 2.0 | 6.0 | 0.00 | 0.00 | 0.00 | 49 | 1007.1 |
| 20260504021050 | 58 | 166 | 1.0 | 5.0 | 0.00 | 0.00 | 0.00 | 48 | 1007.1 |
| 20260504020544 | 58 | 175 | 1.0 | 5.0 | 0.00 | 0.00 | 0.00 | 47 | 1007.1 |
| 20260504020037 | 58 | 207 | 0.0 | 1.0 | 0.00 | 0.00 | 0.00 | 47 | 1007.0 |
| 20260504015532 | 58 | 207 | 1.0 | 3.0 | 0.00 | 0.00 | 0.00 | 47 | 1007.0 |
| 20260504015026 | 59 | 265 | 1.0 | 4.0 | 0.00 | 0.00 | 0.00 | 47 | 1007.0 |
| 20260504014013 | 59 | 186 | 2.0 | 8.0 | 0.00 | 0.00 | 0.00 | 46 | 1006.9 |
| 20260504013507 | 60 | 156 | 2.0 | 5.0 | 0.00 | 0.00 | 0.00 | 45 | 1006.9 |
| 20260504013002 | 60 | 209 | 1.0 | 4.0 | 0.00 | 0.00 | 0.00 | 44 | 1007.0 |
| 20260504011949 | 60 | 180 | 2.0 | 5.0 | 0.00 | 0.00 | 0.00 | 43 | 1006.9 |
| 20260504011443 | 61 | 174 | 1.0 | 4.0 | 0.00 | 0.00 | 0.00 | 43 | 1006.9 |
| 20260504010431 | 62 | 165 | 1.0 | 4.0 | 0.00 | 0.00 | 0.00 | 42 | 1006.9 |
| 20260504005925 | 62 | 163 | 1.0 | 5.0 | 0.00 | 0.00 | 0.00 | 41 | 1006.9 |
| 20260504005419 | 62 | 178 | 1.0 | 5.0 | 0.00 | 0.00 | 0.00 | 40 | 1006.9 |
| 20260504004913 | 63 | 172 | 1.0 | 5.0 | 0.00 | 0.00 | 0.00 | 40 | 1006.9 |
| 20260504004407 | 63 | 228 | 1.0 | 6.0 | 0.00 | 0.00 | 0.00 | 39 | 1006.8 |
| 20260504003902 | 64 | 186 | 2.0 | 6.0 | 0.00 | 0.00 | 0.00 | 39 | 1006.9 |
| 20260504003356 | 64 | 219 | 2.0 | 5.0 | 0.00 | 0.00 | 0.00 | 38 | 1006.9 |
| 20260504002343 | 65 | 198 | 2.0 | 7.0 | 0.00 | 0.00 | 0.00 | 37 | 1006.8 |
| 20260504001837 | 65 | 226 | 2.0 | 11.0 | 0.00 | 0.00 | 0.00 | 37 | 1006.8 |
| 20260504000825 | 65 | 231 | 2.0 | 7.0 | 0.00 | 0.00 | 0.00 | 36 | 1006.8 |
| 20260504000319 | 65 | 223 | 3.0 | 7.0 | 0.00 | 0.00 | 0.00 | 36 | 1006.9 |
| 20260503235813 | 66 | 142 | 3.0 | 10.0 | 0.00 | 0.00 | 0.00 | 36 | 1006.8 |
| 20260503235307 | 65 | 200 | 3.0 | 10.0 | 0.00 | 0.00 | 0.00 | 36 | 1006.9 |
| 20260503234801 | 65 | 206 | 3.0 | 8.0 | 0.00 | 0.00 | 0.00 | 37 | 1006.9 |
| 20260503234256 | 65 | 243 | 3.0 | 11.0 | 0.00 | 0.00 | 0.00 | 38 | 1007.0 |
| 20260503233749 | 65 | 207 | 3.0 | 7.0 | 0.00 | 0.00 | 0.00 | 37 | 1007.1 |
| 20260503233243 | 65 | 221 | 3.0 | 9.0 | 0.00 | 0.00 | 0.00 | 37 | 1007.2 |
| 20260503232738 | 65 | 194 | 3.0 | 9.0 | 0.00 | 0.00 | 0.00 | 37 | 1007.2 |
| 20260503232232 | 65 | 213 | 3.0 | 8.0 | 0.00 | 0.00 | 0.00 | 37 | 1007.3 |
| 20260503231725 | 65 | 196 | 4.0 | 10.0 | 0.00 | 0.00 | 0.00 | 37 | 1007.3 |
| 20260503231219 | 65 | 163 | 4.0 | 11.0 | 0.00 | 0.00 | 0.00 | 36 | 1007.3 |
| 20260503230713 | 65 | 232 | 4.0 | 14.0 | 0.00 | 0.00 | 0.00 | 36 | 1007.2 |
| 20260503230208 | 65 | 196 | 4.0 | 11.0 | 0.00 | 0.00 | 0.00 | 36 | 1007.4 |
| 20260503225701 | 65 | 197 | 4.0 | 9.0 | 0.00 | 0.00 | 0.00 | 36 | 1007.5 |
| 20260503225155 | 65 | 229 | 4.0 | 11.0 | 0.00 | 0.00 | 0.00 | 35 | 1007.6 |
| 20260503224649 | 66 | 0 | 5.0 | 12.0 | 0.00 | 0.00 | 0.00 | 34 | 1007.6 |
| 20260503224144 | 66 | 0 | 6.0 | 16.0 | 0.00 | 0.00 | 0.00 | 35 | 1007.7 |
| 20260503223637 | 65 | 223 | 5.0 | 16.0 | 0.00 | 0.00 | 0.00 | 35 | 1007.7 |
| 20260503222626 | 64 | 319 | 6.0 | 17.0 | 0.00 | 0.00 | 0.00 | 36 | 1007.8 |
| 20260503222120 | 64 | 240 | 5.0 | 17.0 | 0.00 | 0.00 | 0.00 | 36 | 1007.8 |
| 20260503221614 | 65 | 225 | 4.0 | 12.0 | 0.00 | 0.00 | 0.00 | 36 | 1007.8 |
| 20260503221107 | 63 | 243 | 4.0 | 12.0 | 0.00 | 0.00 | 0.00 | 37 | 1007.8 |
| 20260503220601 | 63 | 226 | 5.0 | 11.0 | 0.00 | 0.00 | 0.00 | 37 | 1008.0 |
| 20260503220055 | 63 | 214 | 5.0 | 12.0 | 0.00 | 0.00 | 0.00 | 36 | 1008.1 |
| 20260503215550 | 64 | 234 | 6.0 | 16.0 | 0.00 | 0.00 | 0.00 | 35 | 1008.0 |
| 20260503215043 | 65 | 215 | 6.0 | 15.0 | 0.00 | 0.00 | 0.00 | 34 | 1008.0 |
| 20260503214537 | 65 | 220 | 6.0 | 17.0 | 0.00 | 0.00 | 0.00 | 34 | 1007.9 |
| 20260503214031 | 65 | 200 | 6.0 | 17.0 | 0.00 | 0.00 | 0.00 | 34 | 1007.9 |
| 20260503212008 | 65 | 217 | 6.0 | 14.0 | 0.00 | 0.00 | 0.00 | 35 | 1008.3 |
| 20260503211502 | 64 | 160 | 7.0 | 23.0 | 0.00 | 0.00 | 0.00 | 33 | 1008.3 |
| 20260503210955 | 64 | 355 | 7.0 | 23.0 | 0.00 | 0.00 | 0.00 | 34 | 1008.4 |
| 20260503210449 | 65 | 218 | 7.0 | 15.0 | 0.00 | 0.00 | 0.00 | 32 | 1008.4 |
| 20260503205943 | 64 | 215 | 6.0 | 12.0 | 0.00 | 0.00 | 0.00 | 35 | 1008.4 |
| 20260503205437 | 64 | 85 | 5.0 | 14.0 | 0.00 | 0.00 | 0.00 | 34 | 1008.6 |
| 20260503204932 | 64 | 257 | 6.0 | 14.0 | 0.00 | 0.00 | 0.00 | 34 | 1008.6 |
| 20260503203919 | 65 | 0 | 6.0 | 20.0 | 0.00 | 0.00 | 0.00 | 33 | 1008.7 |
| 20260503203413 | 65 | 0 | 8.0 | 20.0 | 0.00 | 0.00 | 0.00 | 33 | 1008.7 |
| 20260503202912 | 65 | 0 | 6.0 | 19.0 | 0.00 | 0.00 | 0.00 | 33 | 1008.7 |
| 20260503202412 | 65 | 0 | 5.0 | 14.0 | 0.00 | 0.00 | 0.00 | 33 | 1008.6 |
| 20260503201912 | 65 | 147 | 5.0 | 14.0 | 0.00 | 0.00 | 0.00 | 33 | 1008.7 |
| 20260503201411 | 64 | 244 | 5.0 | 14.0 | 0.00 | 0.00 | 0.00 | 33 | 1008.9 |
| 20260503200912 | 65 | 131 | 6.0 | 18.0 | 0.00 | 0.00 | 0.00 | 34 | 1009.1 |
| 20260503200409 | 64 | 196 | 6.0 | 18.0 | 0.00 | 0.00 | 0.00 | 33 | 1009.2 |
| 20260503195909 | 64 | 160 | 6.0 | 18.0 | 0.00 | 0.00 | 0.00 | 34 | 1009.3 |
| 20260503195407 | 63 | 88 | 6.0 | 18.0 | 0.00 | 0.00 | 0.00 | 32 | 1009.3 |
| 20260503194908 | 64 | 171 | 6.0 | 21.0 | 0.00 | 0.00 | 0.00 | 31 | 1009.3 |
| 20260503194408 | 63 | 215 | 6.0 | 21.0 | 0.00 | 0.00 | 0.00 | 33 | 1009.6 |
| 20260503193909 | 63 | 234 | 6.0 | 19.0 | 0.00 | 0.00 | 0.00 | 32 | 1009.6 |
| 20260503192906 | 63 | 211 | 6.0 | 13.0 | 0.00 | 0.00 | 0.00 | 31 | 1009.9 |
| 20260503192407 | 63 | 182 | 6.0 | 19.0 | 0.00 | 0.00 | 0.00 | 31 | 1010.1 |
| 20260503191908 | 64 | 157 | 6.0 | 19.0 | 0.00 | 0.00 | 0.00 | 30 | 1010.2 |
| 20260503191402 | 64 | 256 | 6.0 | 15.0 | 0.00 | 0.00 | 0.00 | 30 | 1010.3 |